| time (UTC) | temp C | wind direction | speed KPH | gust KPH | rain 1hr cm | rain 24hr cm | rain mn cm | humidity % | barometer mb |
| 20260503010505 | 13 | 291 | 0.0 | 0.0 | 0.00 | 0.03 | 0.03 | 56 | 1013.1 |
| 20260503010006 | 13 | 291 | 0.0 | 0.0 | 0.00 | 0.03 | 0.03 | 55 | 1013.1 |
| 20260503005504 | 13 | 291 | 0.0 | 0.0 | 0.00 | 0.03 | 0.03 | 53 | 1013.1 |
| 20260503005005 | 14 | 291 | 0.0 | 0.0 | 0.00 | 0.03 | 0.03 | 47 | 1013.1 |
| 20260503004006 | 15 | 291 | 0.0 | 1.6 | 0.00 | 0.03 | 0.03 | 45 | 1013.1 |
| 20260503003506 | 15 | 285 | 0.0 | 4.8 | 0.00 | 0.03 | 0.03 | 45 | 1013.1 |
| 20260503002505 | 16 | 306 | 0.0 | 3.2 | 0.00 | 0.03 | 0.03 | 42 | 1013.1 |
| 20260503002005 | 16 | 302 | 1.6 | 4.8 | 0.00 | 0.03 | 0.03 | 40 | 1013.1 |
| 20260503001506 | 16 | 290 | 3.2 | 16.1 | 0.00 | 0.03 | 0.03 | 40 | 1013.1 |
| 20260503001005 | 16 | 302 | 4.8 | 11.3 | 0.00 | 0.03 | 0.03 | 39 | 1013.1 |
| 20260503000505 | 16 | 281 | 3.2 | 8.0 | 0.00 | 0.03 | 0.03 | 39 | 1013.1 |
| 20260503000006 | 17 | 304 | 3.2 | 14.5 | 0.00 | 0.03 | 0.03 | 39 | 1013.1 |
| 20260502235505 | 17 | 299 | 3.2 | 16.1 | 0.00 | 0.03 | 0.03 | 39 | 1013.1 |
| 20260502235006 | 17 | 288 | 4.8 | 14.5 | 0.00 | 0.03 | 0.03 | 39 | 1013.1 |
| 20260502234505 | 17 | 289 | 4.8 | 19.3 | 0.00 | 0.03 | 0.03 | 40 | 1013.1 |
| 20260502234005 | 17 | 298 | 4.8 | 11.3 | 0.00 | 0.03 | 0.03 | 39 | 1013.1 |
| 20260502233505 | 17 | 292 | 1.6 | 9.7 | 0.00 | 0.03 | 0.03 | 40 | 1013.1 |
| 20260502233006 | 17 | 287 | 1.6 | 19.3 | 0.00 | 0.03 | 0.03 | 40 | 1013.1 |
| 20260502232506 | 17 | 346 | 3.2 | 8.0 | 0.00 | 0.03 | 0.03 | 40 | 1013.1 |
| 20260502232005 | 17 | 306 | 8.0 | 14.5 | 0.00 | 0.03 | 0.03 | 39 | 1012.2 |
| 20260502231006 | 17 | 14 | 3.2 | 9.7 | 0.00 | 0.03 | 0.03 | 41 | 1012.2 |
| 20260502230505 | 17 | 339 | 4.8 | 9.7 | 0.00 | 0.03 | 0.03 | 40 | 1012.2 |
| 20260502230005 | 18 | 18 | 3.2 | 11.3 | 0.00 | 0.03 | 0.03 | 40 | 1012.2 |
| 20260502225504 | 18 | 28 | 4.8 | 11.3 | 0.00 | 0.03 | 0.03 | 39 | 1012.2 |
| 20260502225005 | 17 | 3 | 1.6 | 8.0 | 0.00 | 0.03 | 0.03 | 41 | 1012.2 |
| 20260502224505 | 17 | 345 | 4.8 | 14.5 | 0.00 | 0.03 | 0.03 | 40 | 1012.2 |
| 20260502224005 | 17 | 22 | 4.8 | 14.5 | 0.00 | 0.03 | 0.03 | 41 | 1012.2 |
| 20260502223505 | 17 | 322 | 4.8 | 11.3 | 0.00 | 0.03 | 0.03 | 40 | 1012.2 |
| 20260502222006 | 18 | 352 | 3.2 | 16.1 | 0.00 | 0.03 | 0.03 | 39 | 1012.2 |
| 20260502221505 | 18 | 11 | 4.8 | 16.1 | 0.00 | 0.03 | 0.03 | 40 | 1012.2 |
| 20260502221005 | 18 | 22 | 3.2 | 11.3 | 0.00 | 0.03 | 0.03 | 39 | 1012.2 |
| 20260502220505 | 18 | 331 | 4.8 | 16.1 | 0.00 | 0.03 | 0.03 | 38 | 1012.2 |
| 20260502220004 | 18 | 2 | 3.2 | 19.3 | 0.00 | 0.03 | 0.03 | 39 | 1012.2 |
| 20260502215505 | 18 | 328 | 1.6 | 12.9 | 0.00 | 0.03 | 0.03 | 39 | 1012.2 |
| 20260502215005 | 18 | 293 | 8.0 | 22.5 | 0.00 | 0.03 | 0.03 | 36 | 1012.2 |
| 20260502214006 | 18 | 303 | 4.8 | 19.3 | 0.00 | 0.03 | 0.03 | 36 | 1012.2 |
| 20260502213505 | 18 | 356 | 3.2 | 9.7 | 0.00 | 0.03 | 0.03 | 37 | 1012.2 |
| 20260502213005 | 18 | 325 | 3.2 | 11.3 | 0.00 | 0.03 | 0.03 | 36 | 1012.2 |
| 20260502212504 | 18 | 6 | 4.8 | 22.5 | 0.00 | 0.03 | 0.03 | 35 | 1012.2 |
| 20260502212006 | 18 | 0 | 3.2 | 9.7 | 0.00 | 0.03 | 0.03 | 35 | 1012.2 |
| 20260502211006 | 19 | 329 | 4.8 | 9.7 | 0.00 | 0.03 | 0.03 | 34 | 1012.2 |
| 20260502210506 | 18 | 306 | 4.8 | 19.3 | 0.00 | 0.03 | 0.03 | 34 | 1012.2 |
| 20260502210007 | 18 | 355 | 9.7 | 16.1 | 0.00 | 0.03 | 0.03 | 32 | 1012.2 |
| 20260502205504 | 18 | 350 | 9.7 | 20.9 | 0.00 | 0.03 | 0.03 | 33 | 1012.2 |
| 20260502205005 | 19 | 331 | 4.8 | 11.3 | 0.00 | 0.03 | 0.03 | 32 | 1012.2 |
| 20260502204505 | 19 | 30 | 4.8 | 16.1 | 0.00 | 0.03 | 0.03 | 34 | 1012.2 |
| 20260502204005 | 19 | 353 | 6.4 | 20.9 | 0.00 | 0.03 | 0.03 | 32 | 1012.5 |
| 20260502203506 | 19 | 339 | 9.7 | 20.9 | 0.00 | 0.03 | 0.03 | 31 | 1012.5 |
| 20260502202006 | 19 | 14 | 4.8 | 19.3 | 0.00 | 0.03 | 0.03 | 35 | 1012.5 |
| 20260502201005 | 18 | 320 | 6.4 | 16.1 | 0.00 | 0.03 | 0.03 | 33 | 1012.5 |
| 20260502200505 | 19 | 345 | 8.0 | 19.3 | 0.00 | 0.03 | 0.03 | 34 | 1012.5 |
| 20260502200005 | 19 | 289 | 9.7 | 24.1 | 0.00 | 0.03 | 0.03 | 32 | 1012.5 |
| 20260502195506 | 18 | 0 | 8.0 | 19.3 | 0.00 | 0.03 | 0.03 | 33 | 1012.5 |
| 20260502194505 | 19 | 336 | 9.7 | 24.1 | 0.00 | 0.03 | 0.03 | 33 | 1012.5 |
| 20260502193505 | 18 | 340 | 8.0 | 24.1 | 0.00 | 0.03 | 0.03 | 37 | 1012.5 |
| 20260502192505 | 18 | 348 | 8.0 | 20.9 | 0.00 | 0.03 | 0.03 | 40 | 1012.5 |
| 20260502192006 | 18 | 350 | 4.8 | 19.3 | 0.00 | 0.03 | 0.03 | 40 | 1012.5 |
| 20260502191506 | 19 | 348 | 4.8 | 12.9 | 0.00 | 0.03 | 0.03 | 39 | 1012.5 |
| 20260502191004 | 19 | 12 | 6.4 | 19.3 | 0.00 | 0.03 | 0.03 | 38 | 1012.5 |
| 20260502190505 | 19 | 333 | 4.8 | 14.5 | 0.00 | 0.03 | 0.03 | 37 | 1012.5 |
| 20260502190006 | 18 | 323 | 11.3 | 22.5 | 0.00 | 0.03 | 0.03 | 38 | 1012.5 |
| 20260502185505 | 18 | 302 | 4.8 | 14.5 | 0.00 | 0.03 | 0.03 | 39 | 1012.5 |
| 20260502185005 | 19 | 298 | 8.0 | 22.5 | 0.00 | 0.03 | 0.03 | 40 | 1012.5 |
| 20260502184505 | 19 | 320 | 4.8 | 9.7 | 0.00 | 0.03 | 0.03 | 40 | 1012.5 |
| 20260502184005 | 19 | 14 | 4.8 | 12.9 | 0.00 | 0.03 | 0.03 | 41 | 1012.5 |
| 20260502183505 | 18 | 302 | 4.8 | 19.3 | 0.00 | 0.03 | 0.03 | 40 | 1012.5 |
| 20260502182506 | 18 | 319 | 4.8 | 12.9 | 0.00 | 0.03 | 0.03 | 42 | 1012.5 |
| 20260502182005 | 18 | 330 | 4.8 | 12.9 | 0.00 | 0.03 | 0.03 | 40 | 1012.5 |
| 20260502181506 | 19 | 301 | 3.2 | 8.0 | 0.00 | 0.03 | 0.03 | 43 | 1012.5 |
| 20260502180505 | 18 | 351 | 4.8 | 11.3 | 0.00 | 0.03 | 0.03 | 43 | 1012.5 |
| 20260502170505 | 18 | 38 | 6.4 | 19.3 | 0.00 | 0.03 | 0.03 | 47 | 1012.5 |
| 20260502164005 | 18 | 319 | 8.0 | 25.7 | 0.00 | 0.03 | 0.03 | 48 | 1012.2 |
| 20260502163504 | 18 | 0 | 4.8 | 14.5 | 0.00 | 0.03 | 0.03 | 49 | 1012.2 |
| 20260502163006 | 18 | 3 | 6.4 | 12.9 | 0.00 | 0.03 | 0.03 | 51 | 1012.2 |
| 20260502162505 | 17 | 319 | 6.4 | 19.3 | 0.00 | 0.03 | 0.03 | 50 | 1012.2 |
| 20260502162005 | 18 | 353 | 3.2 | 9.7 | 0.00 | 0.03 | 0.03 | 51 | 1012.2 |
| 20260502161505 | 17 | 326 | 3.2 | 14.5 | 0.00 | 0.03 | 0.03 | 54 | 1012.2 |
| 20260502161004 | 17 | 358 | 6.4 | 12.9 | 0.00 | 0.03 | 0.03 | 55 | 1012.2 |
| 20260502151506 | 16 | 306 | 3.2 | 11.3 | 0.00 | 0.03 | 0.03 | 57 | 1012.2 |
| 20260502150505 | 16 | 346 | 4.8 | 9.7 | 0.00 | 0.03 | 0.03 | 57 | 1012.2 |
| 20260502130507 | 12 | 21 | 1.6 | 4.8 | 0.00 | 0.03 | 0.03 | 68 | 1012.2 |
| 20260502123005 | 12 | 327 | 1.6 | 4.8 | 0.00 | 0.03 | 0.03 | 67 | 1011.5 |
| 20260502122505 | 12 | 42 | 0.0 | 3.2 | 0.00 | 0.03 | 0.03 | 66 | 1011.5 |
| 20260502122005 | 12 | 294 | 1.6 | 4.8 | 0.00 | 0.03 | 0.03 | 67 | 1011.5 |
| 20260502121505 | 12 | 314 | 1.6 | 4.8 | 0.00 | 0.03 | 0.03 | 67 | 1011.5 |
| 20260502121007 | 12 | 300 | 1.6 | 4.8 | 0.00 | 0.03 | 0.03 | 67 | 1011.5 |
| 20260502120505 | 12 | 275 | 0.0 | 1.6 | 0.00 | 0.03 | 0.03 | 67 | 1011.5 |
| 20260502115006 | 12 | 256 | 0.0 | 4.8 | 0.00 | 0.03 | 0.03 | 66 | 1011.5 |
| 20260502113506 | 12 | 307 | 1.6 | 8.0 | 0.00 | 0.03 | 0.03 | 65 | 1011.5 |
| 20260502113005 | 12 | 326 | 1.6 | 3.2 | 0.00 | 0.03 | 0.03 | 65 | 1011.5 |
| 20260502112506 | 12 | 47 | 0.0 | 3.2 | 0.00 | 0.03 | 0.03 | 66 | 1011.5 |
| 20260502111505 | 12 | 267 | 1.6 | 3.2 | 0.00 | 0.03 | 0.03 | 65 | 1011.5 |
| 20260502111006 | 12 | 22 | 1.6 | 3.2 | 0.00 | 0.03 | 0.03 | 65 | 1011.5 |
| 20260502110506 | 12 | 284 | 0.0 | 3.2 | 0.00 | 0.03 | 0.03 | 65 | 1011.5 |
| 20260502110005 | 12 | 286 | 1.6 | 3.2 | 0.00 | 0.03 | 0.03 | 65 | 1011.5 |
| 20260502105505 | 12 | 294 | 0.0 | 3.2 | 0.00 | 0.03 | 0.03 | 66 | 1011.5 |
| 20260502105005 | 12 | 293 | 0.0 | 3.2 | 0.00 | 0.03 | 0.03 | 66 | 1011.5 |
| 20260502104505 | 12 | 264 | 1.6 | 4.8 | 0.00 | 0.03 | 0.03 | 65 | 1011.5 |
| 20260502104006 | 12 | 288 | 1.6 | 4.8 | 0.00 | 0.03 | 0.03 | 65 | 1011.5 |
| 20260502103506 | 12 | 282 | 1.6 | 3.2 | 0.00 | 0.03 | 0.03 | 65 | 1011.5 |
| 20260502103005 | 12 | 282 | 1.6 | 4.8 | 0.00 | 0.03 | 0.03 | 65 | 1011.5 |
| 20260502102506 | 12 | 281 | 3.2 | 4.8 | 0.00 | 0.03 | 0.03 | 65 | 1011.5 |
| 20260502101505 | 12 | 283 | 1.6 | 4.8 | 0.00 | 0.03 | 0.03 | 65 | 1011.3 |
| 20260502101005 | 12 | 281 | 1.6 | 8.0 | 0.00 | 0.03 | 0.03 | 65 | 1010.4 |
| 20260502100505 | 12 | 294 | 3.2 | 9.7 | 0.00 | 0.03 | 0.03 | 66 | 1010.4 |
| 20260502091505 | 12 | 353 | 3.2 | 4.8 | 0.00 | 0.03 | 0.03 | 69 | 1011.0 |
| 20260502091005 | 12 | 295 | 1.6 | 19.3 | 0.00 | 0.03 | 0.03 | 70 | 1011.0 |
| 20260502090505 | 12 | 280 | 1.6 | 4.8 | 0.00 | 0.03 | 0.03 | 71 | 1011.0 |
| 20260502071005 | 13 | 17 | 0.0 | 4.8 | 0.00 | 0.03 | 0.03 | 81 | 1011.6 |
| 20260502070505 | 13 | 22 | 1.6 | 4.8 | 0.00 | 0.03 | 0.03 | 81 | 1011.6 |
| 20260502070006 | 13 | 20 | 1.6 | 4.8 | 0.00 | 0.03 | 0.03 | 81 | 1011.6 |
| 20260502065505 | 13 | 13 | 3.2 | 4.8 | 0.00 | 0.03 | 0.03 | 81 | 1011.6 |
| 20260502064504 | 13 | 355 | 3.2 | 4.8 | 0.00 | 0.03 | 0.03 | 82 | 1011.6 |
| 20260502064005 | 13 | 32 | 3.2 | 4.8 | 0.00 | 0.03 | 0.03 | 82 | 1012.0 |
| 20260502063504 | 13 | 343 | 1.6 | 4.8 | 0.00 | 0.03 | 0.03 | 83 | 1012.0 |
| 20260502063006 | 13 | 11 | 1.6 | 4.8 | 0.00 | 0.03 | 0.03 | 83 | 1012.0 |
| 20260502062506 | 13 | 350 | 1.6 | 4.8 | 0.03 | 0.03 | 0.03 | 83 | 1012.0 |
| 20260502062005 | 13 | 32 | 0.0 | 4.8 | 0.03 | 0.03 | 0.03 | 84 | 1012.0 |
| 20260502061504 | 13 | 293 | 1.6 | 4.8 | 0.03 | 0.03 | 0.03 | 84 | 1012.0 |
| 20260502061005 | 13 | 268 | 0.0 | 0.0 | 0.03 | 0.03 | 0.03 | 84 | 1012.0 |
| 20260502060006 | 13 | 268 | 0.0 | 0.0 | 0.03 | 0.03 | 0.03 | 84 | 1012.0 |
| 20260502055506 | 13 | 268 | 0.0 | 0.0 | 0.03 | 0.03 | 0.03 | 84 | 1012.0 |
| 20260502055005 | 13 | 265 | 0.0 | 0.0 | 0.03 | 0.03 | 0.03 | 84 | 1012.1 |
| 20260502054505 | 13 | 300 | 0.0 | 0.0 | 0.03 | 0.03 | 0.03 | 84 | 1012.1 |
| 20260502053505 | 14 | 298 | 0.0 | 0.0 | 0.03 | 0.03 | 0.03 | 84 | 1012.1 |
| 20260502053005 | 14 | 298 | 0.0 | 0.0 | 0.03 | 0.03 | 0.03 | 84 | 1012.1 |
| 20260502052505 | 14 | 224 | 0.0 | 0.0 | 0.03 | 0.03 | 0.03 | 83 | 1012.1 |
| 20260502052005 | 14 | 227 | 0.0 | 0.0 | 0.00 | 0.00 | 0.00 | 83 | 1012.1 |
| 20260502051005 | 14 | 144 | 0.0 | 0.0 | 0.00 | 0.00 | 0.00 | 83 | 1012.1 |
| 20260502050505 | 14 | 144 | 0.0 | 0.0 | 0.00 | 0.00 | 0.00 | 82 | 1012.1 |
| 20260502050004 | 14 | 144 | 0.0 | 0.0 | 0.00 | 0.00 | 0.00 | 82 | 1012.1 |
| 20260502045005 | 14 | 144 | 0.0 | 0.0 | 0.00 | 0.00 | 0.00 | 82 | 1012.1 |
| 20260502044505 | 14 | 144 | 0.0 | 0.0 | 0.00 | 0.00 | 0.00 | 81 | 1012.1 |
| 20260502044005 | 14 | 144 | 0.0 | 0.0 | 0.00 | 0.00 | 0.00 | 81 | 1012.1 |
| 20260502043505 | 14 | 144 | 0.0 | 0.0 | 0.00 | 0.00 | 0.00 | 82 | 1012.1 |
| 20260502043006 | 14 | 144 | 0.0 | 0.0 | 0.00 | 0.00 | 0.00 | 82 | 1012.1 |
| 20260502041505 | 14 | 144 | 0.0 | 0.0 | 0.00 | 0.00 | 0.00 | 82 | 1012.1 |
| 20260502041006 | 14 | 130 | 0.0 | 0.0 | 0.00 | 0.00 | 0.00 | 82 | 1012.1 |
| 20260502040506 | 14 | 130 | 0.0 | 0.0 | 0.00 | 0.00 | 0.00 | 82 | 1012.1 |
| 20260502040006 | 14 | 219 | 0.0 | 0.0 | 0.00 | 0.00 | 0.00 | 82 | 1012.1 |
| 20260502035505 | 14 | 219 | 0.0 | 0.0 | 0.00 | 0.00 | 0.00 | 82 | 1012.1 |
| 20260502035005 | 14 | 219 | 0.0 | 0.0 | 0.00 | 0.00 | 0.00 | 82 | 1012.1 |
| 20260502034506 | 15 | 219 | 0.0 | 0.0 | 0.00 | 0.00 | 0.00 | 82 | 1012.1 |
| 20260502034005 | 15 | 219 | 0.0 | 0.0 | 0.00 | 0.00 | 0.00 | 82 | 1012.1 |
| 20260502033505 | 15 | 219 | 0.0 | 0.0 | 0.00 | 0.00 | 0.00 | 82 | 1012.1 |
| 20260502033005 | 15 | 219 | 0.0 | 0.0 | 0.00 | 0.00 | 0.00 | 82 | 1012.1 |
| 20260502032505 | 15 | 219 | 0.0 | 0.0 | 0.00 | 0.00 | 0.00 | 82 | 1012.1 |
| 20260502032006 | 15 | 219 | 0.0 | 0.0 | 0.00 | 0.00 | 0.00 | 81 | 1012.1 |
| 20260502031506 | 15 | 219 | 0.0 | 0.0 | 0.00 | 0.00 | 0.00 | 81 | 1012.1 |
| 20260502031005 | 15 | 219 | 0.0 | 0.0 | 0.00 | 0.00 | 0.00 | 81 | 1012.1 |
| 20260502030505 | 15 | 219 | 0.0 | 0.0 | 0.00 | 0.00 | 0.00 | 81 | 1012.1 |
| 20260502025505 | 15 | 219 | 0.0 | 0.0 | 0.00 | 0.00 | 0.00 | 81 | 1012.1 |
| 20260502025006 | 15 | 219 | 0.0 | 0.0 | 0.00 | 0.00 | 0.00 | 80 | 1012.1 |
| 20260502024005 | 15 | 219 | 0.0 | 0.0 | 0.00 | 0.00 | 0.00 | 80 | 1012.1 |
| 20260502023506 | 15 | 219 | 0.0 | 0.0 | 0.00 | 0.00 | 0.00 | 80 | 1012.1 |
| 20260502022505 | 15 | 219 | 0.0 | 0.0 | 0.00 | 0.00 | 0.00 | 80 | 1012.1 |
| 20260502021505 | 15 | 219 | 0.0 | 0.0 | 0.00 | 0.00 | 0.00 | 81 | 1012.1 |
| 20260502021005 | 15 | 219 | 0.0 | 0.0 | 0.00 | 0.00 | 0.00 | 81 | 1012.1 |
| 20260502020506 | 15 | 216 | 0.0 | 0.0 | 0.00 | 0.00 | 0.00 | 80 | 1012.1 |
| 20260502020004 | 15 | 216 | 0.0 | 0.0 | 0.00 | 0.00 | 0.00 | 80 | 1012.1 |
| 20260502015505 | 15 | 216 | 0.0 | 0.0 | 0.00 | 0.00 | 0.00 | 80 | 1012.1 |
| 20260502014506 | 15 | 300 | 0.0 | 0.0 | 0.00 | 0.00 | 0.00 | 80 | 1012.1 |
| 20260502014005 | 15 | 300 | 0.0 | 0.0 | 0.00 | 0.00 | 0.00 | 81 | 1012.1 |
| 20260502013506 | 15 | 300 | 0.0 | 0.0 | 0.00 | 0.00 | 0.00 | 81 | 1012.1 |
| 20260502013006 | 15 | 300 | 0.0 | 0.0 | 0.00 | 0.00 | 0.00 | 81 | 1012.1 |
| 20260502012506 | 15 | 300 | 0.0 | 0.0 | 0.00 | 0.00 | 0.00 | 82 | 1012.1 |
| 20260502012005 | 15 | 300 | 0.0 | 0.0 | 0.00 | 0.00 | 0.00 | 82 | 1012.1 |
| 20260502011505 | 15 | 300 | 0.0 | 0.0 | 0.00 | 0.00 | 0.00 | 81 | 1012.1 |
| 20260502011004 | 15 | 300 | 0.0 | 0.0 | 0.00 | 0.00 | 0.00 | 82 | 1012.1 |